Voltar ao catálogo

COSMOS 1275 DEB

AtivoPO
NORAD 12714·DEBRIS·🇷🇺 Russia

Lançado Jun 4, 1981 de Plesetsk Cosmodrome

Loading…

Próximas Passagens (próximas 24 horas)

TLE

AtualizadoSource: Space-Track

Época: Sep 14, 2026, 11:33 UTC

1 12714U 81053BJ  26257.48191988  .00000312  00000-0  38127-3 0  9992
2 12714  82.9686 273.0501 0124122 310.0725  48.9589 13.59914053229033

Acompanhe COSMOS 1275 DEB em tempo real com AllMySat

Download on the App Store